Погода в Дальнегорске

Россия / Приморский край     44°33′14″N   135°33′58″E
темп.,
°C
ветер,
м/с
пор.,
м/с
влажн.,
%
обл.,
%
осадки,
мм/ч
давл.,
гПа
погр.,
м
19 апреля, пн
пн1901:00+4сз396864 0.0 1001463
04:00+3сз397322 0.0 1001413
07:00+4сз516655 0.0 10001194
10:00+10сз717515 0.0 9991671
13:00+13сз714385 0.0 9971904
16:00+15сз612316 0.0 9972436
19:00+12зсз513340 0.0 9991897
22:00+8з24480 0.0 100283
20 апреля, вт
вт2001:00+6зюз226013 0.0 100233
04:00+4зсз5127311 0.0 1005737
07:000сз718440 0.0 10081296
10:00+3зсз822290 0.0 10092015
13:00+7зсз928220 0.0 10082705
16:00+8зсз927220 0.0 10082975
19:00+5сз722210 0.0 10122505
22:00+3сз619240 0.0 10151421
21 апреля, ср
ср2101:00+3сз520210 0.0 10161444
04:00+3сз415270 0.0 1016831
07:00+4сз413300 0.0 1017681
10:00+11сз616220 0.0 10171182
13:00+16сз512200 0.0 10171538
16:00+18сз59210 0.0 10171862
19:00+14сз23330 0.0 101865
22:00+8зсз32460 0.0 102137
22 апреля, чт
чт2201:00+7сз22470 0.0 102221
04:00+6ссз11480 0.0 102310
07:00+4ююв12595 0.0 102673
10:00+9юв2333100 0.0 1027618
13:00+13юв3227100 0.0 1026824
16:00+13юв3231100 0.0 1024752
19:00+7юв2247100 0.0 1026296
22:00+4ю0159100 0.0 102816
23 апреля, пт
пт2301:00+4з1159100 0.0 102710
04:00+5сз1158100 0.0 102610
07:00+6зсз1158100 0.0 102617
10:00+16сз1238100 0.0 1023479
13:00+21ссв1228100 0.0 10221900
16:00+21вюв1229100 0.0 10201774
19:00+15сз1149100 0.0 102141
22:00+12сз2363100 0.0 102363